This is the latest recevied weather packets stored in our database for station/object wb2ifs-13. If no packets are shown the sender has not sent any weather packets the latest 10 day(s).
| Time | Temp. | Humidity | Pressure | Rain* | Wind** | Luminosity | Snow |
|---|---|---|---|---|---|---|---|
| 1777738498 | 13.33° C | 54% | 1014.8 hPa | 0 mm | - | - | - |
| 1777737601 | 13.33° C | 54% | 1014.8 hPa | 0 mm | - | - | - |
| 1777736698 | 13.33° C | 56% | 1014.9 hPa | 0 mm | - | - | - |
| 1777735799 | 13.33° C | 58% | 1014.9 hPa | 0 mm | - | - | - |
| 1777734898 | 13.33° C | 57% | 1015.2 hPa | 0 mm | - | - | - |
| 1777734001 | 12.78° C | 58% | 1015 hPa | 0 mm | - | - | - |
| 1777733098 | 12.22° C | 63% | 1014.5 hPa | 0 mm | - | - | - |
| 1777732199 | 11.67° C | 62% | 1014.6 hPa | 0 mm | - | - | - |
| 1777731298 | 11.67° C | 66% | 1014.8 hPa | 0 mm | - | - | - |
| 1777730401 | 11.11° C | 67% | 1014.7 hPa | 0 mm | - | - | - |
| 1777729498 | 11.11° C | 70% | 1014.8 hPa | 0 mm | - | - | - |
| 1777728599 | 10.56° C | 73% | 1014.9 hPa | 0 mm | - | - | - |
| 1777727698 | 10° C | 73% | 1015 hPa | 0 mm | - | - | - |
| 1777726801 | 10° C | 73% | 1014.8 hPa | 0 mm | - | - | - |
| 1777725898 | 10° C | 76% | 1014.9 hPa | 0 mm | - | - | - |
| 1777724998 | 9.44° C | 77% | 1014.7 hPa | 0 mm | - | - | - |
| 1777724098 | 9.44° C | 79% | 1014.8 hPa | 0 mm | - | - | - |
| 1777723199 | 9.44° C | 80% | 1014.7 hPa | 0 mm | - | - | - |
| 1777722298 | 8.89° C | 80% | 1014.7 hPa | 0 mm | - | - | - |
| 1777721399 | 8.89° C | 76% | 1014.7 hPa | 0 mm | - | - | - |
| 1777720498 | 8.89° C | 83% | 1014.6 hPa | 0 mm | - | - | - |
| 1777719601 | 8.33° C | 87% | 1014.4 hPa | 0 mm | - | - | - |
| 1777718698 | 8.33° C | 87% | 1014.3 hPa | 0 mm | - | - | - |
| 1777717798 | 8.33° C | 89% | 1014.3 hPa | 0 mm | - | - | - |
| 1777716899 | 8.33° C | 86% | 1014.2 hPa | 0 mm | - | - | - |
* Rain latest hour (hover to see other rain measurements)
** Current wind speed in m/s (hover to see current wind gust speed)